This demonstration page uses our WeatherBlox Daily Observations layout. Learn more.

Left ArrowRight Arrow

Hourly Observations for September 21, 2021

Temp ( °F °C ) Dew Point ( °F °C ) Humidity (%) Winds ( mph kmh ) Pressure ( in mb ) Visibility ( mi km ) Precip ( " mm )
12:15 am 00:15 Clear 51 10.5 45 7 79 79 NW 3 6 30.20 1023 10 16 N/A
12:35 am 00:35 Clear 50 10 45 7.1 82 82 WNW 5 7 30.21 1023 10 16 N/A
12:55 am 00:55 Clear 50 9.9 45 7.1 83 83 WNW 6 9 30.22 1023 10 16 N/A
1:15 am 01:15 Clear 50 9.9 45 7 82 82 WNW 8 13 30.23 1024 10 16 N/A
1:35 am 01:35 Clear 49 9.6 44 6.8 83 83 WNW 7 11 30.25 1024 10 16 N/A
1:55 am 01:55 Clear 49 9.3 44 6.9 85 85 WNW 7 11 30.26 1025 10 16 N/A
2:15 am 02:15 Clear 50 10 45 7.2 83 83 NW 7 11 30.24 1024 10 16 N/A
2:35 am 02:35 Clear 49 9.6 45 7.1 85 85 NW 5 7 30.26 1025 10 16 N/A
2:55 am 02:55 Clear 49 9.3 45 7 86 86 NW 6 9 30.26 1025 10 16 N/A
3:15 am 03:15 Clear 49 9.3 45 7.1 86 86 NW 7 11 30.27 1025 10 16 N/A
3:35 am 03:35 Clear 49 9.6 45 7 84 84 NW 6 9 30.27 1025 10 16 N/A
3:55 am 03:55 Clear 49 9.5 45 7.1 85 85 NW 5 7 30.27 1025 10 16 N/A
4:15 am 04:15 Mostly Cloudy 49 9.7 45 7.2 85 85 NW 6 9 30.28 1025 10 16 N/A
4:35 am 04:35 Cloudy 50 10.1 45 7.2 82 82 NW 7 11 30.27 1025 10 16 N/A
4:55 am 04:55 Cloudy 51 10.5 45 7 79 79 NNW 7 11 30.28 1025 10 16 N/A
5:15 am 05:15 Cloudy 51 10.7 45 7.1 79 79 NNW 8 13 30.28 1025 10 16 N/A
5:35 am 05:35 Cloudy 51 10.7 45 7.1 79 79 NNW 8 13 30.29 1026 10 16 N/A
5:55 am 05:55 Cloudy 51 10.5 45 7.1 80 80 NW 8 13 30.31 1026 10 16 N/A
6:15 am 06:15 Cloudy 51 10.8 45 7 78 78 NNW 8 13 30.31 1026 10 16 N/A
6:35 am 06:35 Cloudy 52 11 45 7 77 77 NNW 9 15 30.31 1027 10 16 N/A
6:55 am 06:55 Cloudy 52 11.1 45 7.1 77 77 NW 6 9 30.32 1027 10 16 N/A
7:15 am 07:15 Cloudy 52 11 45 7.3 78 78 WNW 5 7 30.33 1027 10 16 N/A
7:35 am 07:35 Partly Cloudy 52 11.1 45 7.2 77 77 NW 6 9 30.34 1028 10 16 N/A
7:55 am 07:55 Partly Cloudy 52 11.1 46 7.5 79 79 NW 5 7 30.35 1028 10 16 N/A
8:15 am 08:15 Cloudy 53 11.4 46 7.6 78 78 WNW 8 13 30.36 1028 10 16 N/A
8:35 am 08:35 Cloudy 53 11.7 46 7.5 76 76 WNW 9 15 30.37 1028 10 16 N/A
8:55 am 08:55 Mostly Cloudy 53 11.6 46 7.7 77 77 WNW 9 15 30.38 1029 10 16 N/A
9:15 am 09:15 Partly Cloudy 55 12.9 47 8.5 75 75 NW 10 17 30.38 1029 10 16 N/A
9:35 am 09:35 Mostly Cloudy 56 13.4 46 7.8 69 69 NW 12 19 30.37 1029 10 16 N/A
9:55 am 09:55 Partly Cloudy 58 14.6 47 8.1 65 65 NNW 8 13 30.37 1029 10 16 N/A
10:15 am 10:15 Sunny 60 15.4 46 7.5 60 60 N 12 19 30.38 1029 10 16 N/A
10:35 am 10:35 Sunny 61 16 46 7.8 58 58 N 12 19 30.37 1028 10 16 N/A
10:55 am 10:55 Sunny 62 16.5 46 7.6 56 56 N 8 13 30.37 1028 10 16 N/A
11:15 am 11:15 Sunny 63 17.2 45 7 51 51 NW 9 15 30.37 1028 10 16 N/A
11:35 am 11:35 Sunny 64 17.7 44 6.9 49 49 N 9 15 30.36 1028 10 16 N/A
11:55 am 11:55 Sunny 64 18 44 6.6 47 47 NNW 5 7 30.35 1028 10 16 N/A
12:15 pm 12:15 Sunny 65 18.3 44 6.6 47 47 NNE 6 9 30.35 1028 10 16 N/A
12:35 pm 12:35 Partly Cloudy 65 18.5 44 6.8 47 47 N 7 11 30.34 1027 10 16 N/A
12:55 pm 12:55 Mostly Cloudy 64 17.9 42 5.8 45 45 N 7 11 30.35 1028 10 16 N/A
1:15 pm 13:15 Mostly Cloudy 66 19.1 44 6.4 44 44 NNW 9 15 30.33 1027 10 16 N/A
1:35 pm 13:35 Partly Cloudy 67 19.6 42 5.3 39 39 NNW 9 15 30.32 1027 10 16 N/A
1:55 pm 13:55 Partly Cloudy 69 20.4 41 5 37 37 N 8 13 30.31 1027 10 16 N/A
2:35 pm 14:35 Mostly Cloudy 67 19.6 40 4.6 37 37 N 10 17 30.31 1026 10 16 N/A
2:55 pm 14:55 Mostly Cloudy 68 19.8 39 4.1 36 36 NNW 8 13 30.30 1026 10 16 N/A
3:15 pm 15:15 Mostly Cloudy 69 20.5 40 4.4 35 35 NNW 7 11 30.29 1026 10 16 N/A
3:35 pm 15:35 Mostly Cloudy 70 21.2 41 4.8 34 34 N 7 11 30.28 1025 10 16 N/A
3:55 pm 15:55 Partly Cloudy 67 19.2 39 3.7 36 36 N 8 13 30.29 1026 10 16 N/A
4:15 pm 16:15 Partly Cloudy 70 20.9 39 3.9 33 33 NNW 9 15 30.28 1025 10 16 N/A
4:35 pm 16:35 Partly Cloudy 69 20.5 39 3.8 33 33 NNW 6 9 30.28 1025 10 16 N/A
4:55 pm 16:55 Partly Cloudy 66 18.9 39 4 37 37 NW 5 7 30.30 1026 10 16 N/A
5:15 pm 17:15 Sunny 69 20.8 40 4.5 34 34 NW 7 11 30.28 1025 10 16 N/A
5:35 pm 17:35 Partly Cloudy 69 20.6 39 3.9 33 33 NW 8 13 30.27 1025 10 16 N/A
5:55 pm 17:55 Sunny 69 20.7 39 3.9 33 33 NW 7 11 30.27 1025 10 16 N/A
6:15 pm 18:15 Sunny 68 20 41 5 38 38 NNE 8 13 30.29 1026 10 16 N/A
6:35 pm 18:35 Sunny 67 19.2 42 5.7 41 41 NE 7 11 30.29 1026 10 16 N/A
6:55 pm 18:55 Sunny 65 18.5 44 6.9 47 47 NE 3 6 30.30 1026 10 16 N/A
7:15 pm 19:15 Sunny 64 17.7 45 7.1 50 50 N N/A 30.31 1026 10 16 N/A
7:35 pm 19:35 Sunny 64 17.5 43 6.3 48 48 N N/A 30.31 1026 10 16 N/A
7:55 pm 19:55 Clear 59 14.9 46 7.5 61 61 N N/A 30.33 1027 7 11 N/A
8:15 pm 20:15 Clear 58 14.2 46 7.9 66 66 N N/A 30.34 1027 10 16 N/A
8:35 pm 20:35 Clear 56 13.5 47 8.5 72 72 N N/A 30.35 1028 10 16 N/A
8:55 pm 20:55 Clear 54 12.3 47 8.3 77 77 N N/A 30.37 1029 10 16 N/A
9:15 pm 21:15 Clear 52 11.2 46 8 81 81 N N/A 30.39 1029 10 16 N/A
9:35 pm 21:35 Clear 53 11.4 47 8.1 80 80 N N/A 30.39 1029 10 16 N/A
9:55 pm 21:55 Clear 50 10.1 46 7.8 86 86 N N/A 30.41 1030 10 16 N/A
10:15 pm 22:15 Clear 51 10.4 45 7.4 82 82 N N/A 30.42 1030 10 16 N/A
10:35 pm 22:35 Clear 50 10 45 7.1 82 82 N N/A 30.42 1030 10 16 N/A
10:55 pm 22:55 Clear 49 9.7 44 6.9 83 83 N N/A 30.43 1030 10 16 N/A
11:15 pm 23:15 Clear 48 9 44 6.4 84 84 N N/A 30.43 1031 10 16 N/A
11:35 pm 23:35 Clear 48 8.9 44 6.7 86 86 N N/A 30.43 1031 10 16 N/A
11:55 pm 23:55 Clear 47 8.6 45 7 90 90 N N/A 30.44 1031 10 16 N/A

Powered by AerisWeather